Location: Liberec
(50.7830°N, 15.0500°E)
Time: 02:52:51
(UTC+01:00)

ISS - Pass Details

Date: 03 October 2020
Orbit: 417 x 420 km, 51.6° (Epoch: 25 October)

Event Time Altitude Azimuth Distance (km) Brightness Sun altitude
Rises 19:31:05 0° 286° (WNW) 2,369 2.1 -10.1°
Reaches altitude 10° 19:33:13 10° 281° (W) 1,504 0.7 -10.4°
Maximum altitude 19:36:30 50° 205° (SSW) 544 -3.1 -10.9°
Enters shadow 19:39:14 14° 131° (SE) 1,291 -1.8 -11.4°
